Regional Weather Roundup
Issued by NWS

Home | Current Version | Previous Version | Graphics & Text | Print | Product List | Glossary On
Versions: 1 2 3 4 5 6 7 8 9 10 11 12 13 14 15 16 17 18 19 20 21 22 23 24 25 26 27 28 29 30 31 32 33 34 35 36 37 38 39 40 41 42 43 44 45 46 47 48 49 50
000
ASUS43 KBIS 292002
RWRND

NORTH DAKOTA REGIONAL WEATHER ROUNDUP
NATIONAL WEATHER SERVICE BISMARCK ND
300 PM CDT MON JUN 29 2015

NOTE: "FAIR" INDICATES FEW OR NO CLOUDS BELOW 12,000 FEET WITH NO
SIGNIFICANT WEATHER AND/OR OBSTRUCTIONS TO VISIBILITY.


NDZ001>003-009>011-017-292100-
NORTHWEST NORTH DAKOTA

CITY           SKY/WX    TMP DP  RH WIND       PRES   REMARKS
WILLISTON      SUNNY     95  58  28 SW8       29.93F HX  94
MINOT          MOSUNNY   87  58  37 NW9       29.93F
MINOT AFB      MOSUNNY   91  57  31 N7        29.92F HX  90
$$

NDZ018>021-031>035-040>046-292100-
SOUTHWEST NORTH DAKOTA

CITY           SKY/WX    TMP DP  RH WIND       PRES   REMARKS
BISMARCK       MOSUNNY   90  56  31 W9        29.96S
DICKINSON      SUNNY     89  64  43 S6        29.98F HX  90
GARRISON         N/A     88  60  38 N10       29.95F
HETTINGER ARPT SUNNY     88  62  41 W8        30.03F
$$

NDZ004>008-012>016-024-026-027-054-292100-
NORTHEAST NORTH DAKOTA

CITY           SKY/WX    TMP DP  RH WIND       PRES   REMARKS
GRAND FORKS    MOSUNNY   77  64  64 N10       29.87R
GRND FRKS AFB  SUNNY     76  64  65 N10       29.89R
DEVILS LAKE    SUNNY     75  61  60 N8        29.93S
$$

NDZ022-023-025-028>030-036>039-047>053-292100-
SOUTHEAST NORTH DAKOTA

CITY           SKY/WX    TMP DP  RH WIND       PRES   REMARKS
FARGO          SUNNY     77  63  61 NW12      29.86R
JAMESTOWN      MOSUNNY   81  62  52 N10       29.92R
$$



USA.gov is the U.S. government's official web portal to all federal, state and local government web resources and services.